• Processing (Info)

  • MPEC 2014-D44 : 2014 DW17

    The following Minor Planet Electronic Circular may be linked-to from your own Web pages, but must not otherwise be redistributed electronically.

    A form allowing access to any MPEC is at the bottom of this page.


    Read MPEC 2014-D43 Read MPEC 2014-D45


    M.P.E.C. 2014-D44                                Issued 2014 Feb. 25, 23:42 UT
    
         The Minor Planet Electronic Circulars contain information on unusual
             minor planets and routine data on comets.  They are published
       on behalf of Commission 20 of the International Astronomical Union by the
              Minor Planet Center, Smithsonian Astrophysical Observatory,
                              Cambridge, MA 02138, U.S.A.
    
                 Prepared using the Tamkin Foundation Computer Network
    
                                  MPC@CFA.HARVARD.EDU
                URL https://www.minorplanetcenter.net/    ISSN 1523-6714
    
                                       2014 DW17
    
    Observations:
         K14D17W* C2014 02 24.39402 11 29 58.441+23 10 59.45         20.2 wLED044F51
         K14D17W  C2014 02 24.40652 11 29 51.946+23 11 07.71         20.2 wLED044F51
         K14D17W  C2014 02 24.41906 11 29 45.420+23 11 15.57         20.1 wLED044F51
         K14D17W  C2014 02 24.43160 11 29 38.886+23 11 23.01         20.2 wLED044F51
         K14D17W  C2014 02 24.91999 11 26 08.32 +23 13 16.3                qED044246
         K14D17W  C2014 02 24.92083 11 26 07.91 +23 13 18.5                qED044246
         K14D17W  C2014 02 24.92240 11 26 07.18 +23 13 19.9          20.2 RqED044246
         K14D17W  C2014 02 24.92329 11 26 06.80 +23 13 19.8                qED044246
         K14D17W  C2014 02 24.92371 11 26 06.50 +23 13 20.4                qED044246
         K14D17W  C2014 02 24.92528 11 26 05.88 +23 13 21.6                qED044246
         K14D17W  C2014 02 24.92561 11 26 05.62 +23 13 21.6                qED044246
         K14D17W  C2014 02 24.97127 11 25 44.17 +23 13 45.3          19.5 RvED044461
         K14D17W  C2014 02 24.97722 11 25 41.39 +23 13 47.2          19.4 RvED044461
         K14D17W  C2014 02 24.98001 11 25 40.14 +23 13 48.6          19.2 RvED044461
         K14D17W KC2014 02 25.39968 11 22 50.20 +23 16 17.5          19.7 RqED044H36
         K14D17W KC2014 02 25.40749 11 22 46.90 +23 16 18.0          19.3 RqED044H36
         K14D17W KC2014 02 25.41531 11 22 43.69 +23 16 19.5          20.4 RqED044H36
    
    Observer details:
    246 Klet Observatory-KLENOT.  Observers M. Tichy, J. Ticha, M. Honkova,
        M. Kocer.  Measurer M. Tichy.  1.06-m KLENOT Telescope + CCD.
    461 University of Szeged, Piszkesteto Stn. (Konkoly).  Observer K. Sarneczky.
        0.60-m Schmidt + CCD.
    F51 Pan-STARRS 1, Haleakala.  Observers N. Primak, A. Schultz, T. Goggia,
        M. Willman.  Measurer PS1 Science Consortium.  1.8-m Ritchey-Chretien
        + CCD.
    H36 Sandlot Observatory, Scranton.  Observer G. Hug.  0.56-m reflector + CCD.
    
    Orbital elements:
    2014 DW17                                                Earth MOID = 0.0062 AU
    Epoch 2013 Nov. 4.0 TT = JDT 2456600.5                  MPC
    M 325.01205              (2000.0)            P               Q
    n   0.81058293     Peri.  279.63798     +0.47306151     -0.88012665
    a   1.1392116      Node   142.04582     +0.83162327     +0.43113304
    e   0.3336935      Incl.    3.71719     +0.29088752     +0.19874956
    P   1.22           H   25.4           G   0.15           U   8
    Residuals in seconds of arc
    140224 F51  0.1+  0.0     140224 246  0.4+  0.2+    140224 461  0.6-  0.2-
    140224 F51  0.0   0.0     140224 246  0.8+  0.3-    140224 461  0.2-  0.2+
    140224 F51  0.1-  0.0     140224 246  0.7-  0.1+    140225 H36  0.4-  0.1-
    140224 F51  0.0   0.0     140224 246  0.5+  0.5+    140225 H36  0.4-  0.5-
    140224 246 (1.0+  2.2-)   140224 246  1.0-  0.3+    140225 H36  0.8+  0.2+
    140224 246  0.6+  0.4-    140224 461  0.2+  0.2+
    
    Ephemeris:
    2014 DW17                a,e,i = 1.14, 0.33, 4                   q = 0.7591
    Date    TT    R. A. (2000) Decl.     Delta      r     Elong.  Phase     V
    2014 01 26    21 46 22.3 -22 50 33   0.1153  0.8755    17.7   160.0    31.4
    ...
    2014 02 10    20 25 27.5 -20 11 13   0.03194 0.9563    17.2   162.3    29.7
    ...
    2014 02 18    13 29 35.9 +17 58 14   0.02063 1.0017   130.3    48.8    18.8
    ...
    2014 02 24    11 32 59.2 +23 07 45   0.04939 1.0360   159.4    19.7    19.9
    2014 02 25    11 25 31.8 +23 15 02   0.05466 1.0417   161.0    18.1    20.1
    2014 02 26    11 19 20.1 +23 19 29   0.06000 1.0473   162.1    16.9    20.3
    ...
    2014 03 04    10 57 00.6 +23 16 53   0.09325 1.0812   163.3    15.2    21.3
    ...
    2014 03 12    10 44 37.2 +22 41 01   0.1407  1.1254   158.2    19.1    22.4
    ...
    2014 03 27    10 39 50.3 +20 52 07   0.2400  1.2038   145.8    27.8    23.9
    
    A. U. Tomatic                (C) Copyright 2014 MPC           M.P.E.C. 2014-D44
    

    Read MPEC 2014-D43 Read MPEC 2014-D45


    MPEC number:

    Enter an MPEC number in one of the following forms:

    • 1997-B01 (the full form)
    • J97B01 (the packed version of the full form)
    • B01 (the abbreviated form)